Weather History for KDGW - January, 2014

Change the Weather History Date:

Monday, January 13, 2014

  Actual Average Record
Temperature  
Mean Temperature 34 °F 25 °F  
Max Temperature 45 °F 39 °F 54 °F (2004)
Min Temperature 23 °F 11 °F -15 °F (2007)
Degree Days  
Heating Degree Days 31 40  
Month to date heating degree days 543 522  
Since 1 July heating degree days 3622 3611  
Cooling Degree Days 0 0  
Month to date cooling degree days 0 0  
Year to date cooling degree days 0 0  
Moisture  
Dew Point 21 °F    
Average Humidity 61    
Maximum Humidity 82    
Minimum Humidity 40    
Precipitation  
Precipitation T in 0.01 in 0.01 in (2002)
Month to date precipitation 0.19 0.13  
Year to date precipitation 0.19 0.13  
Sea Level Pressure  
Sea Level Pressure 29.91 in    
Wind  
Wind Speed 22 mph (WNW)    
Max Wind Speed 38 mph    
Max Gust Speed 47 mph    
Visibility 9 miles    
Events Snow    
T = Trace of Precipitation, MM = Missing Value Source: NWS Daily Summary

Daily Weather History Graph

Daily Weather History Graph

Search for Another Location

Airport or City:

Trip Planner

Search our weather history database for the weather conditions in past years. The results will help you decide how hot, cold, wet, or windy it might be!

Date:

Astronomy

Jan. 13, 2014 Rise Set
Actual Time 7:30 AM MST 4:50 PM MST
Civil Twilight 6:58 AM MST 5:22 PM MST
Nautical Twilight 6:23 AM MST 5:57 PM MST
Astronomical Twilight 5:49 AM MST 6:31 PM MST
Moon 3:08 PM MST (1/13) 5:20 AM MST (1/13)
Length of Visible Light 10h 23m
Length of Day
9h 20m
Waxing Gibbous, 95% of the Moon is Illuminated
Jan 13
Waxing Gibbous
Jan 15
Full
Jan 23
Last Quarter
Jan 30
New
Feb 6
First Quarter

Hourly Weather History & Observations

Time (MST) Temp. Windchill Dew Point Humidity Pressure Visibility Wind Dir Wind Speed Gust Speed Precip Events Conditions
12:53 AM 24.1 °F - 16.0 °F 71% 29.93 in 10.0 mi Calm Calm - N/A   Clear
1:53 AM 27.0 °F 18.7 °F 12.9 °F 56% 29.90 in 10.0 mi West 8.1 mph - N/A   Clear
2:53 AM 30.9 °F 19.1 °F 14.0 °F 50% 29.88 in 10.0 mi West 18.4 mph - N/A   Overcast
3:53 AM 30.0 °F 20.5 °F 12.9 °F 49% 29.88 in 10.0 mi WNW 11.5 mph - N/A   Scattered Clouds
4:53 AM 30.9 °F 18.4 °F 14.0 °F 50% 29.87 in 10.0 mi WNW 20.7 mph - N/A   Clear
5:53 AM 33.1 °F 20.6 °F 15.1 °F 48% 29.86 in 10.0 mi WNW 23.0 mph 34.5 mph N/A   Clear
6:53 AM 33.1 °F 20.1 °F 16.0 °F 50% 29.86 in 10.0 mi WNW 25.3 mph 31.1 mph N/A   Mostly Cloudy
7:53 AM 35.1 °F 22.5 °F 18.0 °F 50% 29.86 in 10.0 mi West 26.5 mph 39.1 mph N/A   Mostly Cloudy
8:53 AM 37.0 °F 24.9 °F 19.0 °F 48% 29.88 in 10.0 mi WNW 27.6 mph 43.7 mph N/A   Overcast
9:53 AM 39.0 °F 27.6 °F 19.0 °F 45% 29.88 in 10.0 mi WNW 27.6 mph 35.7 mph N/A   Overcast
10:53 AM 41.0 °F 31.1 °F 19.9 °F 43% 29.87 in 10.0 mi West 23.0 mph 32.2 mph N/A   Overcast
11:53 AM 45.0 °F 35.6 °F 21.0 °F 39% 29.83 in 10.0 mi West 27.6 mph 35.7 mph N/A   Overcast
12:53 PM 44.1 °F 33.2 °F 21.9 °F 42% 29.83 in 10.0 mi West 35.7 mph 43.7 mph N/A   Overcast
1:53 PM 45.0 °F 35.4 °F 21.9 °F 40% 29.81 in 10.0 mi West 28.8 mph 42.6 mph N/A   Scattered Clouds
2:53 PM 43.0 °F 33.1 °F 21.9 °F 43% 29.82 in 10.0 mi West 26.5 mph 34.5 mph N/A   Mostly Cloudy
3:53 PM 42.1 °F 32.6 °F 24.1 °F 49% 29.84 in 10.0 mi WNW 23.0 mph 31.1 mph N/A   Partly Cloudy
4:53 PM 39.9 °F 29.7 °F 23.0 °F 51% 29.84 in 10.0 mi WNW 23.0 mph 33.4 mph N/A   Clear
5:53 PM 39.9 °F 29.2 °F 23.0 °F 51% 29.86 in 10.0 mi WNW 25.3 mph 33.4 mph N/A   Mostly Cloudy
6:53 PM 41.0 °F 30.0 °F 21.9 °F 47% 29.86 in 10.0 mi WNW 28.8 mph 39.1 mph N/A   Overcast
7:53 PM 39.0 °F 27.8 °F 21.9 °F 50% 29.91 in 10.0 mi WNW 26.5 mph 35.7 mph N/A   Mostly Cloudy
8:53 PM 36.0 °F 24.7 °F 23.0 °F 59% 29.93 in 10.0 mi WNW 21.9 mph 28.8 mph N/A   Scattered Clouds
9:53 PM 32.0 °F 24.2 °F 24.1 °F 73% 30.00 in 10.0 mi NNW 9.2 mph - N/A   Scattered Clouds
10:21 PM 33.8 °F 25.3 °F 26.6 °F 75% 29.99 in 10.0 mi NW 11.5 mph - N/A   Mostly Cloudy
10:53 PM 34.0 °F 21.0 °F 28.0 °F 79% 30.03 in 7.0 mi NNW 26.5 mph 33.4 mph N/A   Overcast
11:00 PM 30.2 °F 15.4 °F 26.6 °F 86% 30.02 in 1.8 mi North 28.8 mph 44.9 mph 0.00 in Snow Light Snow
11:06 PM 28.4 °F 13.8 °F 24.8 °F 86% 30.02 in 2.0 mi North 25.3 mph 42.6 mph 0.00 in Snow Light Snow
11:14 PM 28.4 °F 13.5 °F 24.8 °F 86% 30.02 in 5.0 mi North 26.5 mph 39.1 mph 0.00 in Snow Light Snow
11:53 PM 28.9 °F 16.1 °F 25.0 °F 85% 30.10 in 2.5 mi NNW 19.6 mph - 0.00 in Snow Light Snow